This is the latest recevied weather packets stored in our database for station/object HS5XHC-1. If no packets are shown the sender has not sent any weather packets the latest 10 day(s).
| Time | Temp. | Humidity | Pressure | Rain* | Wind** | Luminosity | Snow |
|---|---|---|---|---|---|---|---|
| 1777833951 | 26.67° C | 58% | 967 hPa | - | - | 0 W/m² | - |
| 1777833327 | 26.67° C | 58% | 967 hPa | - | - | 0 W/m² | - |
| 1777832703 | 27.22° C | 57% | 967 hPa | - | - | 0 W/m² | - |
| 1777832079 | 27.78° C | 55% | 967 hPa | - | - | 0 W/m² | - |
| 1777831460 | 27.78° C | 54% | 967 hPa | - | - | 0 W/m² | - |
| 1777830830 | 27.78° C | 54% | 967 hPa | - | - | 0 W/m² | - |
| 1777830206 | 28.33° C | 52% | 967 hPa | - | - | 0 W/m² | - |
| 1777829582 | 29.44° C | 50% | 967 hPa | - | - | 0 W/m² | - |
| 1777828958 | 28.89° C | 52% | 967 hPa | - | - | 0 W/m² | - |
| 1777828334 | 28.89° C | 51% | 967 hPa | - | - | 0 W/m² | - |
| 1777827710 | 28.89° C | 52% | 967 hPa | - | - | 0 W/m² | - |
| 1777827640 | 28.33° C | 54% | 967 hPa | - | - | 0 W/m² | - |
| 1777827016 | 29.44° C | 51% | 967 hPa | - | - | 0 W/m² | - |
| 1777826392 | 28.89° C | 52% | 967 hPa | - | - | 0 W/m² | - |
| 1777825768 | 28.33° C | 53% | 967 hPa | - | - | 0 W/m² | - |
| 1777825144 | 27.22° C | 58% | 967 hPa | - | - | 0 W/m² | - |
| 1777824520 | 27.22° C | 58% | 967 hPa | - | - | 0 W/m² | - |
| 1777823895 | 27.22° C | 58% | 967 hPa | - | - | 0 W/m² | - |
| 1777823271 | 27.22° C | 58% | 967 hPa | - | - | 0 W/m² | - |
| 1777822647 | 27.22° C | 58% | 967 hPa | - | - | 0 W/m² | - |
| 1777822023 | 27.22° C | 58% | 967 hPa | - | - | 0 W/m² | - |
| 1777821399 | 27.22° C | 57% | 967 hPa | - | - | 0 W/m² | - |
| 1777820776 | 27.22° C | 56% | 967 hPa | - | - | 0 W/m² | - |
| 1777820153 | 28.33° C | 52% | 967 hPa | - | - | 0 W/m² | - |
| 1777819527 | 28.89° C | 51% | 967 hPa | - | - | 0 W/m² | - |
* Rain since midnight (hover to see other rain measurements)
** Current wind speed in m/s (hover to see current wind gust speed)